"startDT [UTC]","vpos","CH4 [ppm]","stdev(CH4) [ppm]","CO2 [ppm]","stdev(CO2) [ppm]","H2O [ppm]","stdev(H2O)","p_LGR [torr]","T_LGR [C]","mt1_LGR [us]","mt2_LGR [us]","T_ECpre [C]","T_EC1 [C]","T_EC2 [C]","p_inlet [hPa]","p_in [hPa]","p_out [hPa]","T_inlet [C]","RH_inlet [%]","dwpt_inlet [C]","T_vent [C]","RH_vent [%]","dwpt_vent [C]","flow_vent [l min-1]","flow_inlet [l min-1]","dwpt_sample [C]","T_room [C]"
2012-06-09 00:00:00,0.0,,,,,,,,,,,0.93,-26.30,8.03,-60,569,-936,26.8,12.5,-4.5,26.7,1.3,-30.9,5.73,2.35,-28.1,31.0
2012-06-09 00:01:00,0.0,,,,,,,,,,,0.93,-26.28,8.48,-61,570,-936,26.7,12.8,-4.2,26.7,1.3,-30.9,5.73,2.35,-28.1,31.0
2012-06-09 00:02:00,0.0,,,,,,,,,,,0.93,-26.27,8.91,-61,570,-936,26.8,13.0,-4.0,26.7,1.3,-30.9,5.73,2.36,-28.1,31.0
2012-06-09 00:03:00,0.0,,,,,,,,,,,0.94,-26.28,9.33,-61,570,-936,26.8,12.9,-4.1,26.7,1.3,-30.9,5.73,2.35,-28.1,31.1
2012-06-09 00:04:00,0.0,,,,,,,,,,,0.95,-26.26,9.72,-60,570,-936,26.8,13.1,-3.8,26.7,1.3,-30.9,5.73,2.35,-28.1,31.0
2012-06-09 00:05:00,0.0,,,,,,,,,,,0.96,-26.23,10.12,-61,570,-936,26.7,13.1,-3.9,26.7,1.3,-31.0,5.73,2.35,-28.1,31.0
2012-06-09 00:06:00,0.0,,,,,,,,,,,0.96,-26.21,10.50,-60,570,-936,26.8,12.4,-4.6,26.7,1.3,-30.9,5.73,2.34,-28.1,31.1
2012-06-09 00:07:00,0.0,,,,,,,,,,,0.94,-26.21,10.87,-61,569,-936,26.8,12.9,-4.1,26.7,1.3,-30.9,5.73,2.34,-28.1,31.1
2012-06-09 00:08:00,0.0,,,,,,,,,,,0.91,-26.20,11.22,-60,570,-936,26.8,12.8,-4.1,26.7,1.3,-30.9,5.73,2.34,-28.1,31.1
2012-06-09 00:09:00,0.0,,,,,,,,,,,0.92,-26.19,11.56,-60,570,-936,26.8,13.0,-4.0,26.7,1.3,-30.9,5.73,2.34,-28.1,31.1
2012-06-09 00:10:00,0.0,,,,,,,,,,,0.90,-26.18,11.88,-61,570,-936,26.8,12.8,-4.2,26.7,1.3,-30.9,5.73,2.35,-28.1,31.1
2012-06-09 00:11:00,0.0,,,,,,,,,,,0.92,-26.17,12.20,-61,570,-936,26.8,12.5,-4.4,26.7,1.3,-30.9,5.73,2.34,-28.1,31.1
2012-06-09 00:12:00,0.0,,,,,,,,,,,0.91,-26.16,12.50,-61,570,-936,26.8,12.7,-4.3,26.7,1.3,-30.9,5.73,2.35,-28.1,31.1
2012-06-09 00:13:00,0.0,1.8846,0.0008,399.62,0.17,2.5,9.0,138.08,30.08,24.63,36.34,0.94,-26.15,12.79,-61,570,-936,26.8,13.1,-3.8,26.7,1.3,-30.9,5.73,2.36,-28.1,31.1
2012-06-09 00:14:00,0.0,1.8849,0.0008,399.53,0.18,5.6,13.4,138.08,30.08,24.63,36.35,0.94,-26.14,13.08,-61,570,-936,26.8,13.3,-3.7,26.7,1.3,-30.9,5.73,2.36,-28.1,31.1
2012-06-09 00:15:00,0.0,1.8846,0.0008,399.60,0.24,6.3,14.3,138.07,30.08,24.64,36.35,0.96,-26.14,13.35,-61,570,-936,26.8,12.9,-4.0,26.7,1.3,-30.9,5.73,2.35,-28.0,31.1
2012-06-09 00:16:00,0.0,,,,,,,,,,,0.94,-26.13,13.61,-61,570,-936,26.8,12.5,-4.5,26.7,1.3,-30.9,5.73,2.35,-28.0,31.1
2012-06-09 00:17:00,0.0,,,,,,,,,,,0.96,-26.12,13.85,-61,570,-936,26.8,12.4,-4.5,26.7,1.3,-30.9,5.73,2.35,-28.0,31.0
2012-06-09 00:18:00,0.0,,,,,,,,,,,0.96,-26.11,14.09,-61,570,-936,26.8,12.6,-4.4,26.7,1.3,-30.9,5.73,2.34,-28.0,31.0
2012-06-09 00:19:00,0.0,,,,,,,,,,,0.96,-26.11,14.31,-61,570,-936,26.8,12.9,-4.0,26.7,1.3,-30.9,5.73,2.34,-28.0,31.1
2012-06-09 00:20:00,0.0,,,,,,,,,,,0.96,-26.11,14.52,-61,570,-936,26.8,13.1,-3.9,26.7,1.3,-31.0,5.73,2.34,-28.1,31.1
2012-06-09 00:21:00,0.0,,,,,,,,,,,0.93,-26.10,14.73,-61,570,-936,26.8,13.1,-3.9,26.7,1.3,-30.9,5.73,2.34,-27.7,31.1
2012-06-09 00:22:00,0.0,,,,,,,,,,,0.92,-26.09,14.93,-61,570,-936,26.8,13.0,-3.9,26.7,1.3,-30.9,5.73,2.34,-27.6,31.1
2012-06-09 00:23:00,0.0,,,,,,,,,,,0.92,-26.08,15.12,-61,570,-936,26.8,12.9,-4.1,26.7,1.3,-30.9,5.73,2.34,-27.6,31.2
2012-06-09 00:24:00,0.0,,,,,,,,,,,0.89,-26.08,15.30,-61,570,-936,26.8,12.8,-4.1,26.7,1.3,-30.9,5.73,2.35,-27.6,31.2
2012-06-09 00:25:00,0.0,,,,,,,,,,,0.92,-26.07,15.47,-61,570,-936,26.8,12.7,-4.2,26.7,1.3,-30.9,5.73,2.35,-27.6,31.1
2012-06-09 00:26:00,0.0,,,,,,,,,,,0.92,-26.07,15.64,-61,570,-936,26.8,12.5,-4.4,26.7,1.3,-30.9,5.73,2.35,-27.6,31.1
2012-06-09 00:27:00,0.0,,,,,,,,,,,0.93,-26.06,15.79,-61,570,-936,26.8,12.7,-4.2,26.7,1.3,-30.9,5.73,2.35,-27.6,31.1
2012-06-09 00:28:00,0.0,,,,,,,,,,,0.94,-26.06,15.95,-61,570,-936,26.8,12.9,-4.0,26.7,1.3,-30.9,5.73,2.35,-27.6,31.2
2012-06-09 00:29:00,0.0,,,,,,,,,,,0.94,-26.06,16.09,-61,570,-936,26.8,12.6,-4.4,26.7,1.3,-30.9,5.73,2.35,-27.6,31.1
2012-06-09 00:30:00,0.0,,,,,,,,,,,0.95,-26.06,16.23,-61,570,-936,26.8,12.7,-4.2,26.7,1.3,-30.8,5.73,2.34,-27.6,31.1
2012-06-09 00:31:00,0.0,,,,,,,,,,,0.95,-26.05,16.37,-61,570,-936,26.8,13.0,-3.9,26.7,1.3,-30.9,5.73,2.34,-27.6,31.1
2012-06-09 00:32:00,0.0,,,,,,,,,,,0.95,-26.04,16.49,-61,570,-936,26.8,13.3,-3.6,26.7,1.3,-30.9,5.73,2.34,-27.6,31.1
2012-06-09 00:33:00,0.0,,,,,,,,,,,0.96,-26.04,16.61,-61,570,-936,26.8,13.2,-3.8,26.7,1.3,-30.9,5.73,2.35,-27.6,31.1
2012-06-09 00:34:00,0.0,,,,,,,,,,,0.96,-26.04,16.72,-61,570,-936,26.8,12.7,-4.2,26.7,1.3,-30.9,5.73,2.35,-27.6,31.1
2012-06-09 00:35:00,0.0,,,,,,,,,,,0.96,-26.04,16.84,-61,570,-937,26.8,12.9,-4.1,26.7,1.3,-30.9,5.73,2.35,-27.6,31.1
2012-06-09 00:36:00,0.0,,,,,,,,,,,0.95,-26.04,16.94,-61,570,-936,26.8,12.2,-4.8,26.7,1.3,-30.9,5.73,2.35,-27.6,31.1
2012-06-09 00:37:00,0.0,,,,,,,,,,,0.95,-26.04,17.04,-61,570,-936,26.8,12.7,-4.2,26.7,1.3,-30.9,5.73,2.35,-27.7,31.1
2012-06-09 00:38:00,0.0,,,,,,,,,,,0.95,-26.04,17.14,-61,570,-936,26.8,12.6,-4.3,26.7,1.3,-30.8,5.73,2.36,-27.6,31.1
2012-06-09 00:39:00,0.0,,,,,,,,,,,0.94,-26.03,17.24,-61,570,-937,26.8,12.6,-4.4,26.7,1.3,-30.9,5.73,2.35,-27.6,31.1
2012-06-09 00:40:00,0.0,,,,,,,,,,,0.93,-26.03,17.32,-61,570,-936,26.8,12.4,-4.5,26.7,1.3,-30.9,5.73,2.35,-27.6,31.2
2012-06-09 00:41:00,0.0,,,,,,,,,,,0.91,-26.03,17.41,-61,570,-936,26.8,12.5,-4.5,26.7,1.3,-30.9,5.73,2.34,-27.6,31.1
2012-06-09 00:42:00,0.0,,,,,,,,,,,0.91,-26.03,17.48,-60,570,-936,26.8,12.6,-4.3,26.7,1.3,-30.9,5.73,2.35,-27.6,31.1
2012-06-09 00:43:00,0.0,,,,,,,,,,,0.92,-26.03,17.56,-60,570,-937,26.8,12.5,-4.4,26.8,1.3,-30.9,5.73,2.34,-27.6,31.1
2012-06-09 00:44:00,0.0,,,,,,,,,,,0.94,-26.04,17.64,-60,570,-936,26.8,12.7,-4.2,26.7,1.3,-30.9,5.73,2.34,-27.6,31.2
2012-06-09 00:45:00,0.0,,,,,,,,,,,0.94,-26.03,17.71,-60,570,-936,26.8,12.6,-4.4,26.8,1.3,-30.9,5.73,2.34,-27.6,31.1
2012-06-09 00:46:00,0.0,,,,,,,,,,,0.94,-26.03,17.78,-61,570,-936,26.8,13.2,-3.7,26.8,1.3,-30.8,5.73,2.35,-27.6,31.2
2012-06-09 00:47:00,0.0,,,,,,,,,,,0.94,-26.04,17.84,-61,570,-937,26.8,13.0,-3.9,26.7,1.3,-30.9,5.73,2.35,-27.6,31.1
2012-06-09 00:48:00,0.0,,,,,,,,,,,0.95,-26.04,17.90,-61,570,-936,26.8,12.9,-4.0,26.7,1.3,-30.9,5.73,2.35,-27.6,31.2
2012-06-09 00:49:00,0.0,,,,,,,,,,,0.95,-26.03,17.97,-61,570,-936,26.8,12.3,-4.6,26.8,1.3,-30.9,5.73,2.35,-27.6,31.1
2012-06-09 00:50:00,0.0,,,,,,,,,,,0.94,-26.03,18.02,-61,570,-936,26.8,12.2,-4.7,26.8,1.3,-30.9,5.73,2.35,-27.6,31.1
2012-06-09 00:51:00,0.0,,,,,,,,,,,0.95,-26.03,18.07,-61,570,-937,26.8,12.3,-4.7,26.8,1.3,-30.9,5.73,2.35,-27.6,31.1
2012-06-09 00:52:00,0.0,,,,,,,,,,,0.96,-26.03,18.13,-61,570,-936,26.8,12.6,-4.3,26.8,1.3,-30.9,5.73,2.35,-27.6,31.1
2012-06-09 00:53:00,0.0,,,,,,,,,,,0.96,-26.03,18.18,-61,570,-936,26.8,11.9,-5.0,26.8,1.3,-30.9,5.73,2.35,-27.6,31.1
2012-06-09 00:54:00,0.0,,,,,,,,,,,0.96,-26.03,18.22,-61,570,-936,26.9,12.1,-4.9,26.8,1.3,-31.1,5.73,2.34,-27.6,31.1
2012-06-09 00:55:00,0.0,,,,,,,,,,,0.96,-26.04,18.27,-61,570,-936,26.9,12.2,-4.7,26.8,1.3,-31.0,5.73,2.34,-27.6,31.2
2012-06-09 00:56:00,0.0,,,,,,,,,,,0.94,-26.03,18.31,-61,570,-937,26.9,12.4,-4.5,26.8,1.3,-31.1,5.73,2.34,-27.6,31.2
2012-06-09 00:57:00,0.0,,,,,,,,,,,0.96,-26.04,18.35,-61,570,-936,26.9,12.6,-4.3,26.8,1.3,-31.0,5.73,2.34,-27.6,31.1
2012-06-09 00:58:00,0.0,,,,,,,,,,,0.94,-26.04,18.39,-61,570,-936,26.9,12.4,-4.5,26.8,1.3,-31.1,5.73,2.34,-27.6,31.2
2012-06-09 00:59:00,0.0,,,,,,,,,,,0.92,-26.03,18.44,-61,570,-937,26.9,12.9,-4.0,26.8,1.3,-31.0,5.73,2.35,-27.6,31.2
2012-06-09 01:00:00,0.0,,,,,,,,,,,0.94,-26.04,18.47,-61,570,-936,26.9,12.8,-4.1,26.8,1.3,-31.1,5.73,2.35,-27.6,31.2
2012-06-09 01:01:00,0.0,,,,,,,,,,,0.92,-26.04,18.51,-61,570,-936,26.9,12.8,-4.1,26.8,1.3,-31.1,5.73,2.35,-27.6,31.2
2012-06-09 01:02:00,0.0,,,,,,,,,,,0.92,-26.03,18.54,-61,570,-936,26.9,12.7,-4.2,26.8,1.3,-31.0,5.73,2.36,-27.6,31.2
2012-06-09 01:03:00,0.0,,,,,,,,,,,0.94,-26.03,18.58,-61,570,-937,26.9,12.5,-4.4,26.8,1.3,-31.1,5.73,2.35,-27.6,31.2
2012-06-09 01:04:00,0.0,,,,,,,,,,,0.93,-26.04,18.60,-61,570,-936,26.9,11.9,-5.0,26.8,1.3,-31.1,5.73,2.35,-27.6,31.2
2012-06-09 01:05:00,0.0,,,,,,,,,,,0.93,-26.04,18.63,-61,570,-936,26.9,12.1,-4.8,26.8,1.3,-31.1,5.73,2.34,-27.6,31.2
2012-06-09 01:06:00,0.0,,,,,,,,,,,0.95,-26.04,18.66,-61,570,-936,26.9,12.1,-4.8,26.8,1.3,-31.1,5.73,2.35,-27.6,31.1
2012-06-09 01:07:00,0.0,,,,,,,,,,,0.93,-26.04,18.68,-61,570,-936,26.9,12.7,-4.2,26.8,1.3,-31.1,5.73,2.35,-27.6,31.2
2012-06-09 01:08:00,0.0,,,,,,,,,,,0.95,-26.04,18.71,-61,570,-937,26.9,12.5,-4.4,26.8,1.3,-31.0,5.73,2.34,-27.6,31.2
2012-06-09 01:09:00,0.0,,,,,,,,,,,0.95,-26.04,18.74,-61,570,-936,26.9,12.5,-4.4,26.8,1.3,-31.1,5.73,2.34,-27.6,31.1
2012-06-09 01:10:00,0.0,,,,,,,,,,,0.95,-26.05,18.76,-61,570,-936,26.9,12.6,-4.2,26.8,1.3,-31.1,5.73,2.34,-27.6,31.2
2012-06-09 01:11:00,0.0,,,,,,,,,,,0.95,-26.04,18.78,-61,570,-937,26.9,12.3,-4.6,26.8,1.3,-31.1,5.73,2.35,-27.6,31.1
2012-06-09 01:12:00,0.0,,,,,,,,,,,0.96,-26.05,18.80,-61,570,-936,26.9,12.6,-4.3,26.8,1.3,-31.0,5.73,2.35,-27.6,31.2
2012-06-09 01:13:00,0.0,1.8846,0.0008,399.62,0.17,2.5,9.0,138.08,30.08,24.63,36.34,0.96,-26.05,18.83,-61,570,-936,26.9,12.5,-4.4,26.8,1.3,-31.1,5.73,2.35,-27.6,31.1
2012-06-09 01:14:00,0.0,1.8849,0.0008,399.53,0.18,5.6,13.4,138.08,30.08,24.63,36.35,0.96,-26.05,18.85,-61,570,-936,26.9,12.3,-4.6,26.8,1.3,-31.1,5.73,2.35,-27.6,31.1
2012-06-09 01:15:00,0.0,1.8846,0.0008,399.60,0.24,6.3,14.3,138.07,30.08,24.64,36.35,0.95,-26.05,18.87,-61,570,-936,26.9,12.1,-4.8,26.8,1.3,-31.0,5.73,2.36,-27.6,31.1
2012-06-09 01:16:00,0.0,,,,,,,,,,,0.95,-26.05,18.88,-61,570,-937,26.9,12.2,-4.7,26.8,1.3,-31.2,5.73,2.35,-27.6,31.2
2012-06-09 01:17:00,0.0,,,,,,,,,,,0.95,-26.06,18.89,-61,570,-936,26.9,12.6,-4.2,26.8,1.3,-31.3,5.73,2.35,-27.6,31.1
2012-06-09 01:18:00,0.0,,,,,,,,,,,0.94,-26.06,18.91,-61,570,-936,26.9,12.9,-3.9,26.8,1.3,-31.3,5.73,2.35,-27.6,31.2
2012-06-09 01:19:00,0.0,,,,,,,,,,,0.93,-26.06,18.93,-61,570,-936,26.9,12.8,-4.0,26.8,1.3,-31.3,5.73,2.35,-27.5,31.2
2012-06-09 01:20:00,0.0,,,,,,,,,,,0.93,-26.06,18.95,-61,570,-937,26.9,12.8,-4.1,26.8,1.3,-31.3,5.73,2.34,-27.5,31.2
2012-06-09 01:21:00,0.0,,,,,,,,,,,0.92,-26.06,18.96,-61,571,-936,26.9,12.4,-4.4,26.8,1.3,-31.3,5.73,2.35,-27.6,31.2
2012-06-09 01:22:00,0.0,,,,,,,,,,,0.93,-26.06,18.98,-61,571,-936,26.9,12.5,-4.3,26.8,1.3,-31.3,5.73,2.34,-27.6,31.2
2012-06-09 01:23:00,0.0,,,,,,,,,,,0.93,-26.05,18.99,-61,570,-937,26.9,12.8,-4.0,26.8,1.3,-31.3,5.73,2.34,-27.6,31.2
2012-06-09 01:24:00,0.0,,,,,,,,,,,0.93,-26.07,18.99,-61,570,-937,26.9,12.8,-4.1,26.8,1.3,-31.3,5.73,2.34,-27.6,31.1
2012-06-09 01:25:00,0.0,,,,,,,,,,,1.17,-26.06,18.30,-61,570,-937,26.9,12.8,-4.0,26.8,1.3,-31.3,5.73,2.35,-27.6,31.1
2012-06-09 01:26:00,0.0,,,,,,,,,,,1.06,-26.05,16.22,-61,571,-936,26.9,12.5,-4.4,26.9,1.3,-31.2,5.73,2.35,-27.6,31.1
2012-06-09 01:27:00,0.0,,,,,,,,,,,0.99,-26.05,13.84,-61,570,-937,26.9,11.9,-5.0,26.9,1.3,-31.3,5.73,2.35,-27.6,31.1
2012-06-09 01:28:00,0.0,,,,,,,,,,,1.10,-26.07,11.46,-61,571,-937,26.9,11.7,-5.2,26.8,1.3,-31.3,5.73,2.35,-27.6,31.1
2012-06-09 01:29:00,0.0,,,,,,,,,,,1.05,-26.08,9.13,-61,571,-937,26.9,11.9,-5.0,26.8,1.3,-31.3,5.73,2.35,-27.6,31.0
2012-06-09 01:30:00,0.0,,,,,,,,,,,1.00,-26.08,6.90,-61,570,-936,26.9,12.2,-4.7,26.8,1.3,-31.3,5.73,2.35,-27.7,31.0
2012-06-09 01:31:00,0.0,,,,,,,,,,,1.09,-26.08,4.77,-61,571,-937,26.9,11.8,-5.2,26.8,1.3,-31.2,5.73,2.35,-27.7,30.9
2012-06-09 01:32:00,0.0,,,,,,,,,,,1.08,-26.08,2.75,-61,571,-937,26.9,11.9,-5.1,26.8,1.3,-31.3,5.73,2.35,-27.7,30.9
2012-06-09 01:33:00,0.0,,,,,,,,,,,0.99,-26.08,0.83,-61,571,-937,26.9,12.2,-4.7,26.8,1.3,-31.3,5.73,2.35,-27.7,30.9
2012-06-09 01:34:00,0.0,,,,,,,,,,,1.06,-26.08,-0.98,-61,571,-937,26.9,12.2,-4.8,26.8,1.3,-31.3,5.73,2.35,-27.7,30.9
2012-06-09 01:35:00,0.0,,,,,,,,,,,1.10,-26.07,-2.59,-61,571,-937,26.9,12.1,-4.8,26.8,1.3,-31.2,5.73,2.35,-27.7,30.9
2012-06-09 01:36:00,0.0,,,,,,,,,,,0.99,-26.09,-4.04,-61,571,-937,26.9,12.0,-5.0,26.8,1.3,-31.3,5.73,2.35,-27.7,30.9
2012-06-09 01:37:00,0.0,,,,,,,,,,,1.03,-26.09,-5.44,-61,571,-937,26.9,12.3,-4.6,26.8,1.3,-31.3,5.73,2.36,-27.7,30.9
2012-06-09 01:38:00,0.0,,,,,,,,,,,1.09,-26.09,-6.90,-61,571,-937,26.9,12.6,-4.3,26.8,1.3,-31.3,5.73,2.36,-27.7,30.9
2012-06-09 01:39:00,0.0,,,,,,,,,,,1.01,-26.10,-8.29,-61,571,-937,26.9,11.5,-5.4,26.8,1.3,-31.3,5.73,2.36,-27.7,30.9
2012-06-09 01:40:00,0.0,,,,,,,,,,,0.99,-26.12,-9.51,-61,571,-937,26.9,11.8,-5.1,26.8,1.3,-31.3,5.73,2.36,-27.7,30.9
2012-06-09 01:41:00,0.0,,,,,,,,,,,1.07,-26.12,-10.62,-61,571,-937,26.9,11.9,-5.0,26.8,1.3,-31.3,5.73,2.36,-27.7,30.8
2012-06-09 01:42:00,0.0,,,,,,,,,,,1.07,-26.14,-11.72,-61,571,-937,26.9,12.0,-5.0,26.8,1.3,-31.3,5.73,2.36,-27.7,30.7
2012-06-09 01:43:00,0.0,,,,,,,,,,,0.98,-26.15,-12.71,-61,571,-937,26.9,11.8,-5.1,26.8,1.3,-31.3,5.73,2.36,-27.7,30.8
2012-06-09 01:44:00,0.0,,,,,,,,,,,1.01,-26.16,-13.72,-61,571,-937,26.9,11.4,-5.6,26.8,1.3,-31.3,5.73,2.36,-27.7,30.8
2012-06-09 01:45:00,0.0,,,,,,,,,,,1.07,-26.17,-14.69,-61,571,-937,26.9,11.7,-5.3,26.8,1.3,-31.3,5.73,2.36,-27.7,30.8
2012-06-09 01:46:00,0.0,,,,,,,,,,,1.06,-26.19,-15.53,-61,571,-937,26.8,12.2,-4.8,26.8,1.3,-31.3,5.73,2.36,-27.7,30.7
2012-06-09 01:47:00,0.0,,,,,,,,,,,0.98,-26.20,-16.30,-61,571,-937,26.9,12.4,-4.5,26.8,1.3,-31.3,5.73,2.36,-27.7,30.8
2012-06-09 01:48:00,0.0,,,,,,,,,,,0.99,-26.21,-17.11,-61,571,-937,26.9,11.9,-5.0,26.8,1.3,-31.3,5.73,2.36,-27.7,30.8
2012-06-09 01:49:00,0.0,,,,,,,,,,,1.05,-26.22,-17.87,-61,571,-937,26.9,12.1,-4.9,26.8,1.3,-31.3,5.73,2.36,-27.7,30.8
2012-06-09 01:50:00,0.0,,,,,,,,,,,1.06,-26.23,-18.60,-61,571,-937,26.9,12.2,-4.7,26.8,1.3,-31.3,5.73,2.36,-27.7,30.9
2012-06-09 01:51:00,0.0,,,,,,,,,,,0.99,-26.25,-19.28,-61,571,-937,26.9,12.2,-4.7,26.8,1.2,-31.5,5.73,2.36,-27.7,30.8
2012-06-09 01:52:00,0.0,,,,,,,,,,,0.99,-26.27,-19.93,-61,571,-937,26.9,12.0,-4.9,26.8,1.2,-31.5,5.73,2.36,-27.7,30.8
2012-06-09 01:53:00,0.0,,,,,,,,,,,1.05,-26.28,-20.53,-61,571,-937,26.8,12.7,-4.2,26.8,1.2,-31.5,5.73,2.36,-27.7,30.8
2012-06-09 01:54:00,0.0,,,,,,,,,,,1.07,-26.29,-21.09,-61,571,-937,26.8,12.3,-4.7,26.7,1.2,-31.6,5.73,2.36,-27.8,30.7
2012-06-09 01:55:00,0.0,,,,,,,,,,,0.99,-26.31,-21.62,-61,571,-937,26.8,11.7,-5.4,26.8,1.2,-31.5,5.73,2.35,-27.8,30.7
2012-06-09 01:56:00,0.0,,,,,,,,,,,0.96,-26.31,-22.12,-61,571,-936,26.8,11.9,-5.1,26.7,1.2,-31.6,5.73,2.36,-27.7,30.7
2012-06-09 01:57:00,0.0,,,,,,,,,,,1.03,-26.32,-22.59,-61,571,-937,26.8,12.1,-4.8,26.8,1.2,-31.5,5.73,2.36,-27.7,30.8
2012-06-09 01:58:00,0.0,,,,,,,,,,,1.07,-26.33,-23.03,-61,571,-937,26.8,11.6,-5.5,26.8,1.2,-31.6,5.73,2.35,-27.7,30.7
2012-06-09 01:59:00,0.0,,,,,,,,,,,1.03,-26.35,-23.43,-61,571,-936,26.8,11.9,-5.1,26.7,1.2,-31.5,5.73,2.36,-27.7,30.7
2012-06-09 02:00:00,0.0,,,,,,,,,,,0.96,-26.36,-23.81,-61,571,-937,26.8,11.9,-5.1,26.8,1.2,-31.5,5.73,2.36,-27.7,30.7
2012-06-09 02:01:00,0.0,,,,,,,,,,,1.00,-26.38,-24.18,-61,571,-937,26.8,11.9,-5.1,26.8,1.2,-31.6,5.73,2.36,-27.7,30.7
2012-06-09 02:02:00,0.0,,,,,,,,,,,1.04,-26.39,-24.51,-61,571,-937,26.8,12.4,-4.5,26.8,1.2,-31.5,5.73,2.36,-27.7,30.7
2012-06-09 02:03:00,0.0,,,,,,,,,,,1.06,-26.40,-24.83,-61,571,-936,26.9,12.0,-5.0,26.8,1.2,-31.5,5.73,2.36,-27.7,30.8
2012-06-09 02:04:00,0.0,,,,,,,,,,,1.00,-26.41,-25.14,-61,571,-937,26.9,11.7,-5.2,26.8,1.2,-31.5,5.73,2.36,-27.7,30.8
2012-06-09 02:05:00,0.0,,,,,,,,,,,0.96,-26.43,-25.43,-61,571,-937,26.9,12.1,-4.9,26.8,1.2,-31.8,5.73,2.37,-27.7,30.8
2012-06-09 02:06:00,0.0,,,,,,,,,,,1.01,-26.43,-25.70,-61,571,-936,26.9,11.9,-5.0,26.8,1.2,-31.7,5.73,2.36,-27.7,30.8
2012-06-09 02:07:00,0.0,,,,,,,,,,,1.05,-26.45,-25.96,-61,571,-937,26.9,11.7,-5.3,26.8,1.2,-31.8,5.73,2.36,-27.7,30.7
2012-06-09 02:08:00,0.0,,,,,,,,,,,1.06,-26.46,-26.20,-61,571,-936,26.9,12.2,-4.7,26.8,1.2,-31.8,5.73,2.36,-27.7,30.7
2012-06-09 02:09:00,0.0,,,,,,,,,,,0.98,-26.48,-26.43,-61,571,-936,26.8,12.0,-5.0,26.8,1.2,-31.7,5.73,2.37,-27.7,30.7
2012-06-09 02:10:00,0.0,,,,,,,,,,,1.02,-26.49,-26.35,-61,571,-937,26.9,12.3,-4.6,26.8,1.2,-31.7,5.73,2.36,-27.7,30.7
2012-06-09 02:11:00,0.0,,,,,,,,,,,0.97,-26.50,-26.26,-61,571,-936,26.9,12.5,-4.4,26.8,1.2,-31.7,5.73,2.36,-27.7,30.8
2012-06-09 02:12:00,0.0,,,,,,,,,,,1.01,-26.51,-26.41,-61,571,-937,26.9,11.8,-5.2,26.8,1.2,-31.7,5.73,2.36,-27.7,30.7
2012-06-09 02:13:00,0.0,1.8846,0.0008,399.62,0.17,2.5,9.0,138.08,30.08,24.63,36.34,0.96,-26.52,-26.47,-61,571,-937,26.9,11.8,-5.2,26.8,1.2,-31.8,5.73,2.36,-27.7,30.7
2012-06-09 02:14:00,0.0,1.8849,0.0008,399.53,0.18,5.6,13.4,138.08,30.08,24.63,36.35,1.04,-26.53,-26.26,-61,571,-936,26.9,11.6,-5.3,26.8,1.2,-31.8,5.73,2.36,-27.7,30.9
2012-06-09 02:15:00,0.0,1.8846,0.0008,399.60,0.24,6.3,14.3,138.07,30.08,24.64,36.35,1.06,-26.53,-26.39,-61,571,-937,26.9,11.8,-5.2,26.8,1.2,-31.7,5.73,2.36,-27.7,30.9
2012-06-09 02:16:00,0.0,,,,,,,,,,,0.96,-26.54,-26.54,-61,571,-936,26.9,12.7,-4.2,26.8,1.2,-31.7,5.73,2.36,-27.7,30.9
2012-06-09 02:17:00,0.0,,,,,,,,,,,0.98,-26.55,-26.29,-61,571,-936,26.9,12.1,-4.8,26.8,1.2,-31.7,5.73,2.36,-27.6,30.8
2012-06-09 02:18:00,0.0,,,,,,,,,,,0.97,-26.56,-26.35,-61,571,-937,26.9,12.2,-4.6,26.8,1.2,-31.7,5.73,2.36,-27.7,30.9
2012-06-09 02:19:00,0.0,,,,,,,,,,,1.03,-26.56,-26.53,-61,571,-936,26.9,12.6,-4.2,26.8,1.2,-31.7,5.73,2.36,-27.7,30.9
2012-06-09 02:20:00,0.0,,,,,,,,,,,0.96,-26.57,-26.41,-61,571,-937,26.9,12.3,-4.6,26.9,1.2,-31.8,5.73,2.36,-27.6,30.9
2012-06-09 02:21:00,0.0,,,,,,,,,,,1.06,-26.58,-26.32,-61,571,-937,26.9,12.1,-4.7,26.9,1.2,-31.9,5.73,2.36,-27.6,30.9
2012-06-09 02:22:00,0.0,,,,,,,,,,,1.02,-26.58,-26.48,-61,571,-936,26.9,12.3,-4.6,26.9,1.2,-31.9,5.73,2.35,-27.7,30.8
2012-06-09 02:23:00,0.0,,,,,,,,,,,0.89,-26.58,-26.55,-61,571,-937,26.9,12.6,-4.2,26.9,1.2,-31.8,5.73,2.35,-27.7,30.7
2012-06-09 02:24:00,0.0,,,,,,,,,,,0.97,-25.73,-26.40,-61,571,-936,26.9,12.5,-4.4,26.9,1.2,-31.6,5.73,2.35,-27.7,30.7
2012-06-09 02:25:00,0.0,,,,,,,,,,,0.91,-23.93,-26.50,-61,571,-937,26.9,12.6,-4.2,26.9,1.3,-30.7,5.73,2.36,-27.7,30.8
2012-06-09 02:26:00,0.0,,,,,,,,,,,0.84,-21.98,-26.61,-61,571,-937,26.9,12.4,-4.5,26.9,1.5,-29.8,5.73,2.35,-27.7,30.8
2012-06-09 02:27:00,0.0,,,,,,,,,,,0.86,-20.07,-26.68,-61,571,-936,26.9,12.3,-4.6,26.9,1.5,-29.4,5.73,2.36,-27.7,30.8
2012-06-09 02:28:00,0.0,,,,,,,,,,,0.88,-18.24,-26.74,-61,571,-937,26.9,12.3,-4.5,26.9,1.5,-29.3,5.73,2.36,-27.7,30.9
2012-06-09 02:29:00,0.0,,,,,,,,,,,0.92,-16.50,-26.79,-61,571,-936,26.9,12.4,-4.4,26.9,1.5,-29.3,5.73,2.36,-27.7,30.8
2012-06-09 02:30:00,0.0,,,,,,,,,,,0.94,-14.86,-26.81,-61,571,-937,26.9,12.9,-3.9,26.9,1.5,-29.5,5.73,2.35,-27.7,30.7
2012-06-09 02:31:00,0.0,,,,,,,,,,,0.96,-13.29,-26.84,-61,571,-937,26.9,12.7,-4.1,26.9,1.5,-29.5,5.73,2.35,-27.7,30.8
2012-06-09 02:32:00,0.0,,,,,,,,,,,0.92,-11.80,-26.86,-61,571,-936,26.9,12.5,-4.4,26.9,1.5,-29.8,5.73,2.36,-27.7,30.9
2012-06-09 02:33:00,0.0,,,,,,,,,,,0.88,-10.38,-26.88,-61,572,-937,26.9,12.8,-4.0,26.9,1.4,-29.9,5.73,2.36,-27.7,30.9
2012-06-09 02:34:00,0.0,,,,,,,,,,,0.87,-9.03,-26.90,-61,572,-937,26.9,12.5,-4.3,26.9,1.4,-30.1,5.73,2.36,-27.7,30.9
2012-06-09 02:35:00,0.0,,,,,,,,,,,0.89,-7.74,-26.92,-61,572,-936,26.9,12.7,-4.2,26.9,1.4,-30.2,5.73,2.36,-27.7,30.8
2012-06-09 02:36:00,0.0,,,,,,,,,,,0.92,-6.51,-26.94,-61,572,-937,26.9,12.5,-4.4,26.9,1.4,-30.3,5.73,2.36,-27.7,30.8
2012-06-09 02:37:00,0.0,,,,,,,,,,,0.92,-5.35,-26.95,-61,572,-936,26.9,12.5,-4.3,26.9,1.4,-30.4,5.73,2.36,-27.7,30.8
2012-06-09 02:38:00,0.0,,,,,,,,,,,0.95,-4.25,-26.96,-61,572,-937,26.9,12.4,-4.4,26.9,1.3,-30.6,5.73,2.36,-27.7,30.8
2012-06-09 02:39:00,0.0,,,,,,,,,,,0.95,-3.20,-26.96,-61,572,-937,26.9,12.7,-4.2,26.9,1.4,-30.6,5.73,2.36,-27.7,30.8
2012-06-09 02:40:00,0.0,,,,,,,,,,,0.96,-2.21,-26.97,-61,572,-936,26.9,12.2,-4.7,26.9,1.3,-30.8,5.73,2.36,-27.7,30.8
2012-06-09 02:41:00,0.0,,,,,,,,,,,0.95,-1.27,-26.97,-61,572,-937,26.9,12.6,-4.2,26.9,1.3,-30.8,5.73,2.36,-27.7,30.8
2012-06-09 02:42:00,0.0,,,,,,,,,,,0.95,-0.37,-26.98,-61,571,-937,26.9,12.7,-4.1,26.9,1.3,-30.9,5.73,2.36,-27.7,30.8
2012-06-09 02:43:00,0.0,,,,,,,,,,,0.93,0.49,-26.97,-61,572,-937,27.0,12.9,-3.9,26.9,1.3,-31.0,5.73,2.36,-27.7,30.8
2012-06-09 02:44:00,0.0,,,,,,,,,,,0.92,1.31,-26.97,-61,572,-937,26.9,12.9,-3.9,26.9,1.3,-31.0,5.73,2.36,-27.7,30.8
2012-06-09 02:45:00,0.0,,,,,,,,,,,0.91,2.07,-26.96,-61,572,-936,26.9,12.4,-4.4,26.9,1.3,-31.0,5.73,2.36,-27.7,30.8
2012-06-09 02:46:00,0.0,,,,,,,,,,,0.91,2.74,-26.96,-61,572,-937,26.9,12.3,-4.6,26.9,1.3,-31.2,5.73,2.36,-27.7,30.9
2012-06-09 02:47:00,0.0,,,,,,,,,,,0.93,3.18,-26.95,-61,572,-936,26.9,12.6,-4.2,26.9,1.3,-31.3,5.73,2.36,-27.7,30.9
2012-06-09 02:48:00,0.0,,,,,,,,,,,0.92,3.62,-26.94,-61,572,-936,26.9,13.3,-3.5,26.9,1.3,-31.2,5.73,2.36,-27.7,30.9
2012-06-09 02:49:00,0.0,,,,,,,,,,,0.94,4.12,-26.94,-61,572,-937,26.9,13.5,-3.3,26.9,1.3,-31.3,5.73,2.36,-27.7,30.9
2012-06-09 02:50:00,0.0,,,,,,,,,,,0.93,4.66,-26.93,-61,572,-936,27.0,13.2,-3.7,26.9,1.2,-31.4,5.73,2.36,-27.7,30.9
2012-06-09 02:51:00,0.0,,,,,,,,,,,0.95,5.21,-26.92,-61,572,-936,27.0,13.0,-3.8,26.9,1.2,-31.5,5.73,2.36,-27.7,30.9
2012-06-09 02:52:00,0.0,,,,,,,,,,,0.95,5.73,-26.92,-61,572,-937,27.0,13.2,-3.6,26.9,1.2,-31.5,5.73,2.36,-27.6,30.9
2012-06-09 02:53:00,0.0,,,,,,,,,,,0.94,6.24,-26.91,-61,572,-936,27.0,13.5,-3.3,26.9,1.2,-31.4,5.73,2.36,-27.6,30.9
2012-06-09 02:54:00,0.0,,,,,,,,,,,0.95,6.72,-26.90,-61,572,-937,27.0,12.9,-3.8,26.9,1.2,-31.5,5.73,2.36,-27.6,30.9
2012-06-09 02:55:00,0.0,,,,,,,,,,,0.96,7.18,-26.89,-61,572,-937,27.0,12.5,-4.3,26.9,1.2,-31.5,5.73,2.36,-27.6,30.9
2012-06-09 02:56:00,0.0,,,,,,,,,,,0.95,7.63,-26.89,-61,572,-936,27.0,12.7,-4.1,26.9,1.2,-31.4,5.73,2.36,-27.6,30.8
2012-06-09 02:57:00,0.0,,,,,,,,,,,0.95,8.06,-26.89,-61,572,-937,27.0,12.6,-4.1,26.9,1.2,-31.5,5.73,2.36,-27.6,30.9
2012-06-09 02:58:00,0.0,,,,,,,,,,,0.95,8.48,-26.87,-61,572,-937,27.0,12.6,-4.2,27.0,1.2,-31.4,5.73,2.36,-27.6,30.9
2012-06-09 02:59:00,0.0,,,,,,,,,,,0.94,8.89,-26.87,-61,572,-937,27.0,12.9,-3.8,26.9,1.2,-31.7,5.73,2.36,-27.6,31.0
2012-06-09 03:00:00,0.0,,,,,,,,,,,0.94,9.29,-26.86,-61,572,-937,27.0,13.3,-3.4,26.9,1.2,-31.7,5.73,2.36,-27.6,31.0
2012-06-09 03:01:00,0.0,,,,,,,,,,,0.95,9.68,-26.85,-61,572,-937,27.0,13.1,-3.7,27.0,1.2,-31.7,5.73,2.36,-27.6,31.0
2012-06-09 03:02:00,0.0,,,,,,,,,,,0.94,10.05,-26.84,-61,572,-937,27.0,13.1,-3.7,26.9,1.2,-31.7,5.73,2.36,-27.6,30.9
2012-06-09 03:03:00,0.0,,,,,,,,,,,0.92,10.41,-26.84,-61,572,-937,27.0,12.5,-4.3,26.9,1.2,-31.7,5.73,2.36,-27.6,31.0
2012-06-09 03:04:00,0.0,,,,,,,,,,,0.93,10.76,-26.83,-61,572,-937,27.0,12.6,-4.2,27.0,1.2,-31.7,5.73,2.36,-27.6,31.0
2012-06-09 03:05:00,0.0,,,,,,,,,,,0.92,11.09,-26.82,-61,572,-937,27.0,12.4,-4.4,26.9,1.2,-31.7,5.73,2.36,-27.5,31.0
2012-06-09 03:06:00,0.0,,,,,,,,,,,0.95,11.40,-26.81,-61,572,-937,27.0,12.5,-4.3,27.0,1.2,-31.7,5.73,2.36,-27.6,31.0
2012-06-09 03:07:00,0.0,,,,,,,,,,,0.92,11.72,-26.81,-61,572,-937,27.1,12.8,-4.0,26.9,1.2,-31.7,5.73,2.36,-27.6,31.0
2012-06-09 03:08:00,0.0,,,,,,,,,,,0.93,12.01,-26.80,-61,572,-937,27.1,13.3,-3.5,27.0,1.2,-31.7,5.73,2.36,-27.6,31.0
2012-06-09 03:09:00,0.0,,,,,,,,,,,0.95,12.30,-26.80,-61,572,-937,27.1,12.3,-4.4,27.0,1.2,-31.7,5.73,2.36,-27.6,31.0
2012-06-09 03:10:00,0.0,,,,,,,,,,,0.95,12.57,-26.79,-61,572,-937,27.1,12.1,-4.7,27.0,1.2,-31.6,5.73,2.36,-27.6,31.0
2012-06-09 03:11:00,0.0,,,,,,,,,,,0.92,12.84,-26.78,-61,572,-937,27.1,12.5,-4.2,27.0,1.2,-31.6,5.73,2.36,-27.6,31.1
2012-06-09 03:12:00,0.0,,,,,,,,,,,0.95,13.08,-26.78,-61,572,-936,27.1,12.8,-3.9,27.0,1.2,-31.6,5.73,2.36,-27.6,31.0
2012-06-09 03:13:00,0.0,1.8846,0.0008,399.62,0.17,2.5,9.0,138.08,30.08,24.63,36.34,0.93,13.32,-26.77,-61,572,-937,27.1,12.5,-4.2,27.0,1.2,-31.7,5.73,2.36,-27.6,31.0
2012-06-09 03:14:00,0.0,1.8849,0.0008,399.53,0.18,5.6,13.4,138.08,30.08,24.63,36.35,0.94,13.56,-26.76,-61,572,-937,27.1,12.2,-4.5,27.0,1.2,-31.7,5.73,2.36,-27.6,31.0
2012-06-09 03:15:00,0.0,1.8846,0.0008,399.60,0.24,6.3,14.3,138.07,30.08,24.64,36.35,0.95,13.78,-26.76,-61,572,-937,27.1,12.8,-3.9,27.0,1.2,-31.6,5.73,2.36,-27.6,31.1
2012-06-09 03:16:00,0.0,,,,,,,,,,,0.94,13.99,-26.76,-61,572,-937,27.1,12.9,-3.8,27.0,1.2,-31.7,5.73,2.36,-27.6,31.1